Location: Recife
(8.0585°S, 34.8848°W)
Time: 22:46:18
(UTC-03:00)

BlueWalker 3 - Visible Passes

Search period start: 12 March 2026 00:00
Search period end: 22 March 2026 00:00
Orbit: 451 x 458 km, 53.2° (Epoch: 12 March)

Date Brightness Start Highest point End Pass type
(mag) Time Alt. Az. Time Alt. Az. Time Alt. Az.
13 Mar 4.1 18:25:42 10° SE 18:25:52 10° SE 18:25:52 10° SE visible
14 Mar 4.1 19:24:18 10° SW 19:25:47 22° WSW 19:25:47 22° WSW visible
15 Mar 1.7 18:48:01 10° SW 18:51:36 78° WNW 18:52:09 60° NNE visible
16 Mar 1.7 18:11:53 10° SSW 18:15:25 63° SE 18:18:42 12° NE visible
18 Mar 4.8 18:38:46 10° W 18:40:12 12° WNW 18:41:37 10° NNW visible
19 Mar 4.6 18:01:27 10° WSW 18:04:00 18° WNW 18:06:33 10° NNW visible
